[[{"header":{"parameterUnit":"m.s-1","parameterCategory":1,"la1":30.2991,"la2":30.254,"lo1":-89.0895,"lo2":-89.0444,"dy":0.0017,"dx":0.0017,"nx":28,"ny":28,"refTime":"2024-03-20T09:00:00:Z","depth":0,"parameterNumber":2,"parameterNumberName":"U-component_of_WINDS"},"data":[0,0,0,0,0,0,0,0,0,0,0,0,0,0,0,0,0,0,0,0,0,0,0,0,0,0,0,0,0,0,0,0,0,0,0,0,0,0,0,0,0,0,0,0,0,0,0,0,0,0,0,0,0,0,0,0,0,0,-4.4121,-4.4121,0,-4.4137,-4.4137,-4.4137,-4.405,-4.4048,-4.4045,-4.4043,-4.4058,-4.4061,-4.4064,0,0,0,0,0,0,0,0,0,0,0,0,0,-4.4016,-4.4018,-4.4121,-4.4121,-4.4122,-4.4137,-4.4137,-4.4137,-4.4051,-4.4048,-4.4045,-4.4042,-4.4058,-4.4061,-4.4064,0,0,0,0,0,0,0,0,0,0,0,0,0,-4.405,-4.4019,-4.4121,-4.408,-4.4077,-4.4137,-4.4137,-4.4137,-4.4052,-4.4048,-4.4044,-4.4041,-4.4056,-4.406,-4.4064,-4.4164,0,0,-4.4077,-4.4079,0,0,0,0,0,0,0,0,-4.4048,-4.4054,-4.4086,-4.4083,-4.4079,-4.4088,-4.4106,-4.4146,-4.4052,-4.4061,-4.4043,-4.4039,-4.4071,-4.4074,-4.4085,-4.4165,-4.4166,-4.4077,-4.408,-4.4082,-4.4083,0,0,0,0,0,0,0,-4.4046,-4.4053,-4.4127,-4.4087,-4.4083,-4.4061,-4.4062,-4.4113,-4.4087,-4.406,-4.4054,-4.4057,-4.4069,-4.4081,-4.4085,-4.4166,-4.4077,-4.4081,-4.4083,-4.4085,-4.4329,-4.4333,0,0,0,0,0,0,-4.4049,-4.4051,-4.4127,-4.4128,-4.4054,-4.4066,-4.4067,-4.4089,-4.4086,-4.4082,-4.406,-4.4053,-4.4076,-4.408,-4.4085,-4.4201,-4.4081,-4.4085,-4.4088,-4.4325,-4.433,-4.4335,0,0,0,0,0,0,-4.4047,-4.4056,-4.4126,-4.4088,-4.4095,-4.4072,-4.4097,-4.4091,-4.4104,-4.4086,-4.4081,-4.4078,-4.4073,-4.4079,-4.4145,-4.4201,-4.4087,-4.4091,-4.4321,-4.4327,-4.4332,-4.4436,0,0,0,0,0,0,-4.4044,-4.4056,-4.4094,-4.4089,-4.4097,-4.4187,-4.4101,-4.4094,-4.4111,-4.4102,-4.4101,-4.4098,-4.4071,-4.414,-4.4149,-4.4204,-4.4094,-4.4315,-4.4323,-4.433,-4.4427,-4.4444,-4.4459,0,0,0,0,0,-4.4041,-4.4122,-4.4096,-4.4106,-4.4144,-4.419,-4.4195,-4.4162,-4.4116,-4.4153,-4.4142,-4.4098,-4.4194,-4.4147,-4.4157,-4.4214,-4.4312,-4.4321,-4.433,-4.442,-4.4441,-4.4459,0,0,0,0,0,0,-4.4133,-4.412,-4.4092,-4.4174,-4.4184,-4.4175,-4.4221,-4.4186,-4.4209,-4.4199,-4.4158,-4.4159,-4.4232,-4.423,-4.4178,-4.4311,-4.4245,-4.4256,-4.4309,-4.4329,-4.4345,-4.4343,-4.4097,0,0,0,0,0,-4.4163,-4.4201,-4.4188,-4.4262,-4.4269,-4.4245,-4.4263,-4.4238,-4.4246,-4.425,-4.4244,-4.4253,-4.4286,-4.4308,-4.4336,-4.4427,-4.4426,-4.4471,-4.4488,-4.4501,-4.4511,-4.4559,-4.4579,-4.4364,-4.4364,-4.4364,0,0,-4.4224,-4.4223,-4.4249,-4.4281,-4.4285,-4.4326,-4.4248,-4.4295,-4.4324,-4.4257,-4.4319,-4.4315,-4.4323,-4.4402,-4.4437,-4.4403,-4.457,-4.4512,-4.4523,-4.4526,-4.457,-4.4591,-4.4609,-4.4371,-4.4369,-4.4368,0,0,-4.4357,-4.436,-4.4422,-4.4429,-4.4437,-4.4421,-4.4436,-4.4434,-4.4429,-4.4491,-4.4441,-4.4476,-4.4533,-4.4541,-4.4552,-4.4691,-4.4651,-4.4702,-4.4785,-4.4832,-4.4849,-4.4864,-4.4913,-4.4931,-4.4712,-4.4712,-4.4713,0,-4.4433,-4.4492,-4.4458,-4.4508,-4.4523,-4.4465,-4.4528,-4.4536,-4.4553,-4.4565,-4.4527,-4.4598,-4.4599,-4.4679,-4.4714,-4.4725,-4.4741,-4.4701,-4.485,-4.4864,-4.4878,-4.4924,-4.4943,-4.4718,-4.4718,-4.4717,-4.4717,0,-4.4585,-4.4627,-4.4676,-4.4695,-4.4716,-4.4772,-4.4746,-4.4772,-4.4746,-4.4734,-4.4798,-4.4798,-4.4826,-4.4844,-4.4818,-4.4921,-4.49,-4.4857,-4.4788,-4.4905,-4.4947,-4.4965,-4.4727,-4.4725,-4.4723,-4.4722,0,0,-4.4774,-4.4775,-4.4793,-4.4801,-4.4807,-4.4839,-4.4893,-4.4921,-4.4944,-4.4959,-4.5003,-4.5053,-4.5014,-4.5027,-4.5002,-4.5044,-4.5154,-4.4996,-4.4995,-4.5024,-4.5267,-4.5298,-4.532,-4.5128,-4.5131,-4.5134,-4.5266,0,-4.4903,-4.4995,-4.4967,-4.5059,-4.5098,-4.5045,-4.5091,-4.5101,-4.5092,-4.5123,-4.5113,-4.5149,-4.5095,-4.5103,-4.5142,-4.5132,-4.5202,-4.5122,-4.5168,-4.517,-4.5166,-4.5342,-4.5375,-4.5499,-4.5283,-4.5286,-4.5288,0,-4.5066,-4.5088,-4.5185,-4.5185,-4.5201,-4.5243,-4.5267,-4.5298,-4.5308,-4.5298,-4.5315,-4.5282,-4.5335,-4.5268,-4.5341,-4.5288,-4.5305,-4.5303,-4.5307,-4.5309,-4.5235,-4.5347,-4.5538,-4.5557,-4.5314,-4.5312,-4.531,0,-4.5193,-4.5247,-4.5312,-4.5321,-4.5324,-4.5355,-4.5357,-4.5363,-4.5383,-4.5404,-4.5416,-4.5443,-4.5458,-4.548,-4.5455,-4.5409,-4.5532,-4.5463,-4.5525,-4.5526,-4.5551,-4.555,-4.5747,-4.5565,-4.5565,-4.5565,-4.5564,0,-4.534,-4.5401,-4.5369,-4.5409,-4.5476,-4.5444,-4.5511,-4.5508,-4.5514,-4.5552,-4.5508,-4.5545,-4.5511,-4.5545,-4.5526,-4.5589,-4.5597,-4.559,-4.5584,-4.5593,-4.5594,-4.5603,-4.5593,-4.557,-4.5569,-4.5568,-4.5567,0,-4.5493,-4.5474,-4.5541,-4.5539,-4.554,-4.5589,-4.5587,-4.5624,-4.5613,-4.5662,-4.5671,-4.5654,-4.5691,-4.567,-4.5708,-4.5696,-4.5778,-4.576,-4.5774,-4.5769,-4.5832,-4.5826,-4.604,-4.6067,-4.587,-4.5872,-4.5873,0,-4.5587,-4.5633,-4.5636,-4.5659,-4.5664,-4.5701,-4.5721,-4.5692,-4.5714,-4.5729,-4.5764,-4.5799,-4.5824,-4.5888,-4.5878,-4.5908,-4.589,-4.5963,-4.5894,-4.5902,-4.589,-4.5887,-4.5892,-4.5977,-4.5979,-4.5981,-4.5982,0,-4.5756,-4.5745,-4.5775,-4.5802,-4.5827,-4.5847,-4.5864,-4.5885,-4.5856,-4.5883,-4.5922,-4.5942,-4.5982,-4.6017,-4.6043,-4.6045,-4.6009,-4.6005,-4.602,-4.6029,-4.6035,-4.6032,-4.5811,-4.5999,-4.5998,-4.5996,-4.5995,-4.5995,-4.5881,-4.592,-4.5928,-4.5963,-4.5973,-4.599,-4.6025,-4.6018,-4.605,-4.608,-4.6062,-4.6107,-4.6117,-4.6148,-4.6155,-4.619,-4.6161,-4.6184,-4.6189,-4.6195,-4.6203,-4.6031,-4.6195,-4.6195,-4.6194,-4.6194,-4.6193,0,-4.6047,-4.605,-4.6083,-4.6108,-4.6136,-4.6102,-4.6118,-4.6144,-4.6185,-4.6197,-4.6224,-4.6269,-4.6302,-4.6297,-4.6328,-4.6357,-4.6341,-4.6366,-4.6363,-4.6364,-4.6228,-4.6211,-4.6378,-4.6378,-4.6378,-4.6378,-4.6378,-4.6378,-4.6136,-4.62,-4.619,-4.6258,-4.6261,-4.6305,-4.6318,-4.6333,-4.6343,-4.6395,-4.6423,-4.642,-4.6425,-4.6456,-4.6486,-4.6483,-4.6496,-4.6527,-4.6519,-4.6392,-4.6373,-4.6356,-4.6339,-4.653,-4.6531,-4.6651,-4.6652,-4.6653]},{"header":{"parameterUnit":"m.s-1","parameterCategory":1,"la1":30.2991,"la2":30.254,"lo1":-89.0895,"lo2":-89.0444,"dy":0.0017,"dx":0.0017,"nx":28,"ny":28,"refTime":"2024-03-20T09:00:00:Z","depth":0,"parameterNumber":3,"parameterNumberName":"V-component_of_WINDS"},"data":[0,0,0,0,0,0,0,0,0,0,0,0,0,0,0,0,0,0,0,0,0,0,0,0,0,0,0,0,0,0,0,0,0,0,0,0,0,0,0,0,0,0,0,0,0,0,0,0,0,0,0,0,0,0,0,0,0,0,1.9225,1.9225,0,1.9285,1.9286,1.9286,1.9327,1.9327,1.9328,1.9328,1.9387,1.9388,1.9389,0,0,0,0,0,0,0,0,0,0,0,0,0,1.9143,1.9144,1.9224,1.9225,1.9226,1.9285,1.9286,1.9286,1.9327,1.9327,1.9328,1.9328,1.9386,1.9388,1.9389,0,0,0,0,0,0,0,0,0,0,0,0,0,1.9188,1.9144,1.9224,1.9253,1.9257,1.9285,1.9286,1.9287,1.9327,1.9327,1.9328,1.9328,1.9386,1.9388,1.939,1.9393,0,0,1.9395,1.9396,0,0,0,0,0,0,0,0,1.9185,1.9191,1.9248,1.9251,1.9255,1.9299,1.9278,1.9322,1.9327,1.93,1.9328,1.9328,1.9357,1.9361,1.9372,1.9395,1.9398,1.9396,1.9397,1.9398,1.9398,0,0,0,0,0,0,0,1.9182,1.9189,1.9248,1.9249,1.9253,1.9263,1.927,1.9287,1.9325,1.9302,1.9306,1.9312,1.9359,1.937,1.9373,1.9399,1.9396,1.9397,1.9398,1.9399,1.9429,1.9429,0,0,0,0,0,0,1.9175,1.9186,1.9246,1.925,1.9221,1.9264,1.9272,1.9284,1.9325,1.9332,1.9312,1.9314,1.9366,1.9371,1.9375,1.9383,1.9398,1.9399,1.9401,1.943,1.9429,1.9429,0,0,0,0,0,0,1.9173,1.918,1.9244,1.9219,1.9228,1.9265,1.9279,1.9285,1.9296,1.9332,1.9339,1.9316,1.9367,1.9373,1.9389,1.9385,1.94,1.9402,1.943,1.943,1.9429,1.9396,0,0,0,0,0,0,1.917,1.9179,1.9181,1.9219,1.9229,1.9256,1.9279,1.9286,1.93,1.9303,1.9338,1.9344,1.9367,1.9385,1.939,1.9388,1.9404,1.9431,1.943,1.9429,1.9398,1.9395,1.9392,0,0,0,0,0,1.9167,1.9168,1.9181,1.9188,1.9232,1.9256,1.9262,1.929,1.9299,1.9301,1.9325,1.9343,1.9385,1.9387,1.9393,1.9391,1.9431,1.943,1.9429,1.9399,1.9395,1.9392,0,0,0,0,0,0,1.9127,1.9173,1.9188,1.9201,1.9225,1.9263,1.9266,1.9284,1.9305,1.9307,1.934,1.9347,1.936,1.9377,1.9378,1.9397,1.941,1.941,1.9385,1.9382,1.9379,1.9374,1.9405,0,0,0,0,0,1.912,1.9137,1.9176,1.9184,1.9195,1.9228,1.924,1.926,1.9285,1.9294,1.9319,1.9342,1.9361,1.9372,1.9391,1.94,1.9409,1.9402,1.9399,1.9397,1.9397,1.9404,1.9402,1.9426,1.9426,1.9426,0,0,1.9105,1.9133,1.9141,1.9176,1.9197,1.9213,1.9236,1.9252,1.9264,1.9296,1.9314,1.9332,1.936,1.9373,1.938,1.9388,1.9392,1.9396,1.9393,1.9395,1.9403,1.94,1.9398,1.9426,1.9426,1.9426,0,0,1.9087,1.9109,1.9118,1.9139,1.917,1.9193,1.9195,1.9231,1.9246,1.9263,1.9289,1.9303,1.9334,1.9353,1.9367,1.9357,1.9375,1.9363,1.9347,1.9354,1.9352,1.935,1.9348,1.9346,1.9362,1.9362,1.9362,0,1.9064,1.909,1.9121,1.9135,1.915,1.9182,1.9192,1.921,1.9245,1.9255,1.9263,1.9304,1.9325,1.9344,1.9341,1.9351,1.9355,1.9359,1.935,1.9349,1.9348,1.9345,1.9344,1.9361,1.9361,1.9361,1.9361,0,1.9061,1.9078,1.9082,1.9117,1.9133,1.9144,1.9177,1.9189,1.9208,1.9229,1.9247,1.9274,1.9299,1.9305,1.9323,1.9327,1.9331,1.9344,1.9358,1.9343,1.9342,1.9341,1.9358,1.9359,1.9359,1.936,0,0,1.9017,1.9071,1.9072,1.9089,1.9126,1.914,1.9154,1.918,1.919,1.9213,1.9226,1.9252,1.9265,1.9281,1.9301,1.9307,1.9299,1.932,1.9321,1.9316,1.9305,1.9295,1.9294,1.9311,1.9311,1.9311,1.9303,0,1.9005,1.9032,1.9061,1.9078,1.9095,1.9126,1.9138,1.9162,1.9183,1.92,1.9223,1.9241,1.9257,1.9267,1.9274,1.9298,1.9297,1.9299,1.9323,1.9323,1.9315,1.9293,1.9282,1.9274,1.9303,1.9303,1.9303,0,1.8993,1.9017,1.9036,1.9074,1.9082,1.9092,1.9119,1.9135,1.9163,1.9178,1.9197,1.9218,1.9234,1.9247,1.927,1.927,1.9282,1.9295,1.9295,1.9299,1.9312,1.9296,1.9272,1.927,1.9302,1.9302,1.9302,0,1.8961,1.8997,1.9014,1.9027,1.9071,1.9078,1.9096,1.9125,1.9139,1.9163,1.9173,1.9197,1.921,1.9228,1.9256,1.9263,1.9276,1.9291,1.9289,1.9288,1.929,1.929,1.9268,1.9297,1.9297,1.9297,1.9297,0,1.8944,1.8954,1.9,1.901,1.9023,1.9056,1.9068,1.9089,1.9115,1.913,1.9157,1.917,1.9206,1.9224,1.9245,1.9261,1.9267,1.9279,1.9285,1.9277,1.9275,1.9285,1.9286,1.9297,1.9297,1.9297,1.9297,0,1.8909,1.894,1.8961,1.9001,1.9012,1.902,1.9054,1.9065,1.9088,1.9106,1.9112,1.9148,1.917,1.92,1.923,1.9245,1.9258,1.9267,1.9249,1.9253,1.9249,1.9249,1.9233,1.9233,1.9261,1.9261,1.9261,0,1.8896,1.8906,1.8948,1.896,1.8978,1.8998,1.9013,1.9046,1.9061,1.9095,1.9101,1.9126,1.9147,1.9181,1.9209,1.9233,1.9243,1.9235,1.9246,1.9238,1.9243,1.9243,1.9244,1.9232,1.9232,1.9231,1.9231,0,1.8871,1.8886,1.8908,1.8935,1.8953,1.8976,1.9,1.9008,1.9046,1.9061,1.9085,1.9101,1.9134,1.9158,1.9186,1.9204,1.9224,1.9228,1.9229,1.9221,1.921,1.9217,1.9242,1.9228,1.9228,1.9228,1.9228,1.9229,1.8847,1.8857,1.8889,1.8913,1.8934,1.8957,1.8969,1.8995,1.9015,1.9045,1.9063,1.9086,1.9115,1.9155,1.9172,1.9191,1.9198,1.9199,1.92,1.92,1.9198,1.9207,1.9196,1.9196,1.9196,1.9196,1.9196,0,1.8824,1.8846,1.8867,1.8901,1.8919,1.8938,1.8966,1.898,1.9,1.9026,1.9047,1.9074,1.9098,1.9128,1.9154,1.9163,1.9173,1.9169,1.9168,1.9173,1.9189,1.9186,1.916,1.916,1.916,1.916,1.916,1.916,1.8814,1.8832,1.8851,1.8881,1.8903,1.8927,1.8942,1.8962,1.8983,1.9013,1.9033,1.9054,1.9082,1.911,1.9133,1.9141,1.9149,1.9143,1.9154,1.9168,1.9171,1.9174,1.9172,1.9144,1.9144,1.9136,1.9136,1.9136]}]]